STARLINK-31211, 59031

Orbit data source: Space-Track

STARLINK-31211, 59031 is a payload satellite owned by SpaceX/Seattle (US) in LEO that was launched on Sun, 25 Feb 2024 UTC via an FALCON 9 launch vehicle from the Air Force Eastern Test Range (AFETR). Payload-class satellites include a variety of spacecraft equipped with specific instruments for various scientific and technological missions. These include communications satellites like Starlink; space stations such as the ISS; scientific satellites like the Hubble; Earth observation satellites from companies like Planet Labs, Umbra, and HawkEye 360; GPS; miniature CubeSats for education and research; and military/defense satellites.

Loading next visibility...
Identifier
59031, 2024-038J
Orbit
LEO
Country
Flag of USUS
Related business
Manufacturer
SpaceX/Seattle
Mission
Operational Commercial Communications
Bus & Motor
STARLINK V2M, Unknown motor
Mass
730 kg wet, ~700 kg dry
Launch date (UTC)
2024-02-25 (2 years ago)
Launch vehicle
FALCON 9
Launch site
Air Force Eastern Test Range (AFETR)
Object type
Payload
Rocket body
Debris
Shape & HBR
Box + 2 Pan, 17.7 m
Radar Cross Section
33.884 m², Large (>1 m²)

Expand to show TLE details & history
Last TLE update: 19 hours ago

TLE from 19 hours ago
0 STARLINK-31211
1 59031U 24038J   25348.83329299  .00003400  00000-0  13312-3 0  9992
2 59031  43.0018 145.9701 0001242 265.4226  94.6484 15.27554143101676
Epoch: 2025-12-14T19:59Z
TLE epoch observation values (Epoch: 2025-12-14T19:59:56.514Z)
Latitude
Longitude
122.24409°
Altitude
482.971 km
Speed
7.626 km/s
True Right ascension
09h 43m 52s
True Declination
0° 00' 00"
Sunlit
Object was in full shadow at epoch
Visualization orbit readout
Latitude
Unknown
Longitude
Unknown
Altitude
Unknown
Speed
Unknown
Apparent Right ascension
Unknown
Apparent Declination
Unknown
Sunlit
N/A
Visualization observer readout
Local Sidereal Time
13:26:10
Azimuth
Unknown
Elevation
Unknown
Doppler factor
Unknown
Orbital elements
Apogee altitude
485.924 km
Perigee altitude
484.219 km
Semi-major axis
6,863.208 km
Eccentricity
0.00012
Inclination
43.0018°
RAAN
145.9701°
Arg. of periapsis
265.4226°
True anomaly
94.66259°
Mean anomaly
94.6484°
Eccentric anomaly
94.65549°
Mean motion
3.81727 °/min
Orbital period
94.31 mins
BSTAR
0.00013312
Loading maneuver chart data...
Computing Atmospheric mass density...
Loading historical data...
Loading historical data...
Loading historical data...
Loading historical data...
Loading historical data...
Loading historical data...
Loading historical data...

Documentation

Showing up to 5 results
|